Dewpoint
72 72 71 70 72 73 71 68 56 58 55 51 52 53 51 60 59 57 56 57 55 59 62 59 55 57 57 56 57 62 61 51 52 46 44 55 68 69 70 71 73 73 73 74 75 75 76 76 75 75 75 76 76 76 75 75 75 75 76 76 75 75 75 75 75 75 75 75 76 76 75 75 75 75 75 75 75 75 75 75 75 75 75 75 75 76 75 75 75 74 75 75 75 75 75 75 74
70 69 69 70 70 71 65 67 58 54 54 52 53 56 53 60 58 54 53 56 57 59 61 60 62 63 62 62 61 58 59 64 64 59 66 69 69 70 71 73 73 73 74 75 75 75 75 76 75 75 76 75 75 75 75 75 75 75 75 75 75 75 75 75 75 75 75 75 75 75 75 75 75 75 75 75 75 75 75 75 75 74 75 75 75 75 75 75 75 74 75 75 75 75 75 76 75
68 65 67 73 73 70 68 67 53 53 50 49 51 55 58 56 57 57 57 59 60 61 61 62 62 62 60 60 56 59 55 64 65 66 67 69 67 68 72 72 73 74 74 75 75 75 75 75 76 75 76 75 75 75 75 74 74 74 75 75 75 75 75 75 75 76 76 75 75 75 75 75 76 76 75 75 75 75 75 75 74 74 75 74 74 74 75 75 75 75 74 74 74 74 75 75 74
63 65 66 71 65 70 62 60 56 52 50 51 51 55 57 56 54 57 60 60 60 59 60 59 60 61 59 58 61 62 62 63 66 66 66 68 67 70 72 73 74 74 75 75 75 75 75 76 76 75 75 75 75 75 74 74 74 74 74 74 74 74 75 75 75 75 75 74 74 74 74 75 76 75 75 75 74 75 74 74 74 73 74 74 74 74 74 74 74 75 74 74 75 75 75 75 75
61 70 71 69 65 60 61 58 57 54 51 53 50 54 61 59 56 58 59 60 59 58 60 60 59 61 61 60 60 59 61 65 66 67 68 69 71 71 72 73 74 74 74 75 75 75 76 76 75 75 75 75 75 74 74 74 74 74 74 74 74 74 75 75 74 74 74 74 74 74 74 75 75 75 75 75 74 75 74 74 74 73 73 73 74 74 74 74 74 74 74 74 75 75 75 75 75
67 70 74 72 64 67 62 56 55 55 55 59 52 55 59 58 57 59 59 60 60 59 59 59 57 57 59 61 62 62 64 61 66 67 68 69 71 71 72 74 73 74 74 74 75 74 75 76 75 75 75 75 74 74 74 74 74 74 74 74 74 74 75 74 74 74 74 74 74 74 74 75 75 75 75 75 75 75 74 74 75 75 74 74 74 73 73 74 73 74 74 74 75 75 75 75 75
66 70 70 67 66 67 57 56 55 56 57 61 57 58 58 57 58 56 56 57 59 58 57 57 58 58 58 61 63 65 66 66 65 66 68 70 70 71 72 72 73 73 74 74 74 74 75 75 75 75 75 75 75 74 74 74 74 73 73 74 74 74 75 75 75 74 74 74 74 74 75 75 75 75 75 75 75 75 74 75 74 74 75 74 74 73 73 73 73 74 74 74 75 75 76 75 74
75 68 67 61 59 60 57 57 56 58 57 62 64 62 57 57 56 56 56 55 56 56 58 58 59 59 60 63 61 66 65 66 67 68 69 69 69 70 71 72 73 73 74 74 74 75 75 75 75 75 75 75 74 74 74 74 74 73 73 74 74 74 75 75 74 74 74 74 74 74 74 75 75 75 75 75 75 74 74 75 75 74 74 74 74 73 73 74 74 74 75 75 76 75 75 75 75
71 70 68 61 56 58 57 56 57 61 62 62 62 66 66 61 58 57 57 59 58 59 59 59 58 54 59 61 62 65 65 67 68 70 69 68 69 70 72 72 72 73 74 74 75 75 75 75 75 76 75 75 74 75 74 74 74 74 74 74 74 74 74 74 73 74 74 75 74 75 74 75 74 74 75 75 74 74 74 74 74 74 74 74 75 74 75 74 75 74 74 75 76 75 75 75 75
69 68 60 59 58 54 55 56 56 59 62 63 62 63 64 63 59 58 57 57 58 59 60 60 60 58 62 61 62 64 65 67 68 68 68 69 70 71 72 72 73 73 74 74 74 74 74 75 75 75 75 75 75 75 75 74 74 74 74 74 74 73 73 73 74 74 75 75 74 74 74 74 74 74 74 75 75 74 74 74 74 74 75 74 74 75 75 75 74 75 74 75 75 74 74 74 74
62 67 66 58 55 55 54 56 58 59 60 63 63 66 64 65 59 59 59 59 61 59 60 61 60 61 61 62 62 66 67 67 67 68 69 69 70 71 72 73 73 74 74 74 74 75 74 74 75 75 75 75 75 75 74 74 74 75 74 74 74 74 74 75 74 74 74 74 74 74 74 74 74 75 74 74 74 74 74 74 75 75 75 75 75 74 75 75 75 75 75 75 74 74 74 74 74
62 62 61 56 55 55 57 57 57 58 62 63 60 64 65 60 59 58 58 58 59 59 59 60 60 61 61 61 62 66 67 67 68 69 69 70 71 72 72 73 73 74 74 74 75 74 75 75 75 75 75 75 75 74 74 74 74 74 74 74 74 74 75 74 74 74 75 74 73 74 74 74 74 75 74 74 74 74 74 75 75 75 74 74 74 74 75 74 74 74 74 74 74 74 74 74 74
62 63 59 57 56 57 58 57 57 59 60 60 62 64 67 59 58 59 59 59 59 59 59 61 61 61 59 61 64 65 66 67 68 69 69 71 71 72 72 73 73 74 74 74 74 74 74 73 74 75 75 74 73 74 74 74 74 74 75 74 74 74 74 74 74 74 74 74 73 73 74 74 74 74 74 74 74 74 75 75 75 75 75 74 74 74 74 74 74 74 74 74 74 74 74 73 73
62 62 60 56 61 58 58 58 58 56 57 62 64 66 67 60 60 59 59 58 59 59 60 61 61 61 61 62 64 64 64 66 68 68 70 71 71 71 72 73 73 74 74 74 73 74 73 74 74 74 74 74 74 74 74 74 74 74 74 75 75 75 75 74 74 74 74 74 73 74 74 74 74 74 74 74 74 75 75 75 75 75 75 75 74 74 74 74 74 74 74 74 73 74 73 74 73
63 66 61 58 58 60 58 57 56 55 56 63 64 65 63 65 62 60 59 58 59 62 61 61 62 59 59 61 61 63 64 66 67 68 70 70 71 72 72 73 73 73 73 73 73 73 73 73 73 74 74 74 74 74 74 74 74 75 75 75 74 75 74 74 74 74 75 74 74 73 74 74 73 74 74 74 75 75 75 75 75 75 75 74 75 74 74 74 74 74 74 75 74 73 74 73 73
65 64 60 56 56 57 58 59 61 56 57 63 64 66 61 62 65 60 61 61 60 62 63 60 61 60 60 61 62 63 64 66 68 69 70 71 71 71 72 72 73 73 73 73 73 73 73 73 73 73 74 74 74 74 74 74 74 74 74 74 75 75 74 74 74 74 74 74 75 74 74 74 74 73 74 74 75 75 75 75 75 75 75 75 75 75 74 74 74 74 74 75 75 75 75 74 74
68 65 56 55 54 57 59 59 59 54 62 63 64 65 58 60 64 66 69 62 59 59 62 61 60 62 61 61 63 64 66 68 70 70 70 70 71 71 71 72 72 72 72 72 72 72 73 73 73 73 74 74 74 74 73 73 73 74 74 74 74 74 74 74 75 74 74 74 74 74 76 74 74 74 75 74 75 75 75 75 74 75 75 75 75 75 75 75 74 75 74 75 75 75 75 76 76
64 58 56 54 56 56 61 58 60 64 60 61 63 64 59 58 62 64 61 61 60 60 59 60 60 60 61 63 65 66 67 68 69 69 69 69 70 69 70 71 71 71 71 72 72 73 72 73 73 73 73 74 74 74 74 73 74 74 74 74 74 74 74 74 74 74 74 74 75 74 74 75 73 73 74 75 75 75 75 74 74 75 75 75 75 75 75 75 75 75 74 75 75 75 75 74 75
60 58 57 54 58 59 63 61 65 62 60 63 63 65 59 59 62 62 58 59 58 58 59 59 59 61 63 64 65 66 67 68 68 69 69 69 69 69 69 70 70 71 71 72 72 73 72 73 73 73 73 73 74 74 74 75 73 73 73 74 73 74 74 74 74 74 73 73 73 74 74 73 72 73 74 75 75 76 76 75 75 75 75 75 75 75 75 75 74 74 75 75 75 76 76 74 74
63 58 56 57 60 62 64 64 65 66 64 63 63 63 60 62 64 66 58 57 58 57 57 58 59 61 62 64 65 66 67 67 68 68 68 68 69 69 69 69 70 70 71 72 72 73 73 73 73 73 73 74 73 73 74 73 73 73 73 74 73 73 73 74 73 73 73 73 73 73 73 73 73 73 76 75 76 74 74 75 75 75 75 76 75 78 78 78 76 77 77 77 78 77 75 74 75
62 59 57 58 63 62 63 65 65 66 64 63 64 64 60 63 65 62 59 56 57 57 58 58 59 61 63 64 65 66 66 67 67 68 68 68 68 68 69 70 70 70 72 73 73 72 73 73 73 73 73 74 73 74 73 73 73 73 73 74 74 73 73 73 73 73 73 74 73 73 73 73 73 73 73 74 73 73 73 73 73 73 73 72 78 72 73 74 75 74 74 75 74 75 75 74 74
62 58 61 62 65 63 66 66 66 66 65 64 64 60 60 64 65 60 58 55 55 57 58 59 60 62 63 64 65 65 66 66 67 67 67 67 67 67 68 69 70 71 72 72 72 72 73 73 73 73 74 73 73 73 73 74 73 73 73 73 73 73 73 73 73 73 73 73 73 74 74 73 72 73 73 72 73 72 73 72 72 72 72 73 75 74 73 73 73 73 73 74 74 74 74 74 74
56 60 62 63 63 63 66 66 66 66 64 64 63 63 65 64 63 62 58 56 58 61 60 60 61 62 64 64 65 65 65 66 66 66 67 66 67 67 68 69 69 70 71 71 72 73 73 73 74 74 73 73 73 73 74 73 72 73 73 73 73 73 73 73 73 73 73 73 73 74 73 72 72 72 72 72 72 72 72 72 72 72 72 72 73 73 73 73 74 73 73 73 73 73 73 73 73
59 57 62 63 65 63 67 67 67 65 65 64 66 67 63 63 60 64 59 62 61 61 59 60 62 63 64 64 64 65 65 65 66 66 66 67 67 67 68 69 69 70 70 71 72 73 73 74 74 74 73 73 73 74 73 73 72 73 73 74 74 74 73 73 73 73 73 72 73 74 74 72 72 72 71 71 71 71 72 72 72 72 72 73 73 74 73 73 73 73 73 73 73 73 73 73 72
59 61 64 63 65 66 67 67 66 67 66 67 63 63 62 63 62 62 60 61 60 60 60 61 62 62 63 63 64 65 65 65 65 66 67 67 68 68 68 69 69 69 70 71 71 72 73 74 74 74 74 73 73 74 73 72 73 73 74 73 72 75 73 73 73 73 73 73 73 74 73 73 72 72 71 71 71 72 72 72 72 72 73 73 73 73 74 73 72 72 72 72 72 72 72 71 72
60 63 64 64 65 66 65 66 67 66 66 65 63 62 63 65 65 62 61 60 60 60 59 60 61 61 61 62 63 64 64 65 65 66 66 67 68 68 68 69 69 68 69 70 71 71 73 74 73 73 74 73 74 73 72 73 72 72 73 73 72 75 73 73 73 73 73 73 72 73 73 73 73 72 71 71 71 71 72 72 72 72 72 73 73 73 73 73 72 71 71 71 71 72 71 71 73
64 63 64 64 65 65 66 65 66 67 66 66 61 62 63 64 63 57 63 60 59 59 58 58 59 59 59 60 61 63 64 64 65 66 67 68 68 68 68 68 68 68 69 69 70 71 73 73 73 73 73 74 73 73 73 72 73 72 73 72 72 74 72 73 74 73 73 72 72 72 73 74 73 72 71 71 71 72 72 72 72 72 72 72 72 73 73 73 72 71 71 71 71 72 72 72 73
63 63 63 63 63 64 65 65 65 65 63 66 63 62 63 63 62 59 59 61 60 58 57 57 57 56 57 58 59 62 63 64 65 65 66 67 67 67 68 68 67 68 68 69 70 71 72 72 72 72 73 74 73 73 74 72 72 73 73 72 72 73 73 73 73 72 73 72 72 72 72 73 74 71 71 71 72 72 72 72 72 72 72 73 74 73 74 75 75 74 75 74 74 74 73 72 71
63 63 61 61 61 61 62 63 63 64 62 65 63 61 59 60 60 62 60 61 60 58 57 56 56 56 56 56 56 61 63 64 64 65 66 67 67 67 67 67 67 68 68 69 70 71 71 71 70 72 72 73 72 72 73 72 72 73 73 72 73 74 73 72 71 72 72 72 72 72 72 72 74 72 71 72 74 72 72 72 72 74 73 74 75 77 76 74 74 73 73 74 73 73 71 70 72
63 63 62 60 60 59 61 63 63 63 63 65 64 54 57 59 61 62 62 60 60 58 57 56 56 55 55 55 55 60 62 64 64 64 66 66 67 67 67 67 68 68 69 69 70 71 70 70 70 71 72 72 72 71 72 71 71 72 73 72 74 72 72 71 72 72 73 72 72 72 72 72 73 72 72 72 73 72 72 72 72 73 74 75 75 75 74 74 74 73 73 73 73 73 71 70 68
60 62 60 58 57 57 62 62 62 61 64 64 64 54 56 59 60 62 64 60 59 57 57 56 55 55 55 54 54 59 62 63 64 64 65 66 66 66 66 67 68 69 70 69 70 70 71 69 70 70 72 71 73 70 72 70 71 71 72 71 72 72 71 71 72 73 74 73 73 73 73 73 74 73 73 73 73 73 73 73 73 73 74 77 74 75 74 74 73 72 73 72 72 71 71 72 69
60 54 53 56 55 57 60 62 62 59 62 64 62 54 56 58 60 62 65 60 59 56 56 56 55 55 54 53 55 59 61 62 63 64 64 65 65 66 66 67 68 69 69 69 70 70 70 69 71 70 71 71 72 70 71 70 70 71 71 73 71 71 72 72 73 73 73 74 74 73 74 75 74 74 74 73 73 72 72 72 73 74 76 74 74 74 75 73 72 73 72 72 72 71 72 70 67
57 53 52 54 56 56 57 59 62 63 62 61 61 55 57 58 61 62 65 59 58 56 56 56 55 54 53 52 56 58 60 61 62 63 64 64 65 65 66 67 68 69 69 69 69 69 69 69 71 70 71 71 71 70 70 70 70 70 71 72 70 71 71 71 72 73 74 73 74 74 75 76 75 76 75 73 72 72 72 73 73 75 77 74 74 73 73 75 72 73 72 73 72 71 71 70 68
51 55 52 55 55 56 55 59 61 62 61 59 61 58 57 60 60 61 64 59 58 56 56 55 55 54 52 52 56 58 59 60 61 62 63 64 64 65 66 69 68 68 68 68 69 68 68 69 70 69 70 71 71 70 70 70 70 70 71 71 73 70 70 71 72 73 73 73 74 75 76 77 77 76 75 74 73 73 73 73 74 75 76 75 74 73 73 73 73 73 71 72 73 71 70 70 70
49 52 52 55 56 56 55 55 58 61 61 59 60 58 58 59 59 60 62 60 57 55 55 55 54 53 51 52 55 57 58 58 60 61 62 63 64 65 66 67 67 67 67 67 68 68 68 68 69 70 70 70 70 70 71 70 70 70 70 69 70 70 70 71 72 72 73 73 73 74 75 76 77 75 75 75 74 74 73 74 75 75 77 74 73 72 71 73 74 73 71 73 72 72 71 70 70
51 53 53 55 54 55 56 58 61 61 59 59 58 56 57 59 60 62 63 62 55 55 55 54 53 51 51 51 54 56 57 58 59 60 61 63 64 65 66 66 67 67 67 67 68 68 68 68 68 70 70 69 70 70 70 69 69 70 68 69 69 70 69 71 71 72 73 73 74 75 75 75 76 75 75 74 74 74 74 74 74 76 75 72 71 71 71 73 73 73 72 74 72 72 72 69 69
55 56 56 55 56 56 58 59 60 62 59 58 58 58 58 59 60 62 62 62 57 54 53 53 52 51 51 51 54 55 56 57 58 60 61 63 64 64 65 66 66 66 66 67 67 67 67 68 69 69 70 70 70 69 69 69 68 68 68 67 67 69 69 70 71 72 72 73 74 75 75 76 76 76 76 74 74 76 74 74 74 74 75 75 74 72 72 75 75 74 74 72 73 70 69 70 69
53 55 55 54 55 55 58 57 59 62 59 57 60 58 58 59 59 60 61 62 55 53 52 52 51 51 52 51 53 55 56 56 58 60 61 62 63 64 64 65 67 65 66 66 66 66 67 68 68 69 70 70 69 69 69 69 69 67 67 67 69 69 71 70 70 71 72 73 74 74 75 75 75 76 77 76 75 75 74 74 74 73 75 73 75 76 76 77 74 74 73 72 72 70 69 70 69
55 54 54 54 56 58 59 59 60 60 60 57 58 57 57 59 60 61 61 62 62 62 53 51 51 51 52 51 53 54 53 55 58 59 61 61 62 63 63 64 65 65 65 65 66 66 68 68 69 71 71 70 70 70 70 71 72 70 69 70 70 71 71 70 71 72 73 73 74 75 75 75 75 75 76 77 75 75 74 74 73 74 75 77 73 72 73 73 73 73 72 72 71 69 72 72 71
53 54 53 53 56 55 53 58 58 58 59 57 57 57 57 59 61 60 61 63 62 62 63 60 53 51 51 51 52 53 52 56 58 59 60 61 62 62 63 63 64 64 65 65 66 67 68 69 70 71 71 71 71 73 73 72 72 72 71 71 71 70 70 74 72 73 73 73 74 74 74 75 75 75 76 77 76 74 74 74 74 75 74 76 73 71 72 73 73 73 72 74 70 67 69 69 74
53 54 52 54 55 56 55 56 58 59 59 60 58 56 56 57 57 58 61 63 61 61 62 62 58 52 52 52 52 52 53 57 58 59 60 60 61 62 62 63 63 64 64 65 66 67 67 69 70 71 71 71 73 76 73 73 74 73 73 73 73 71 71 71 71 71 72 73 74 74 74 75 75 75 76 76 77 74 75 74 74 74 75 75 74 73 72 73 74 73 72 72 70 68 68 69 70
52 53 54 55 57 56 56 57 56 55 54 58 57 50 51 56 56 57 59 61 59 61 60 59 55 54 52 51 51 52 56 58 58 59 59 60 61 62 62 63 63 64 65 66 67 67 68 69 70 71 71 71 74 73 73 73 72 71 71 70 68 68 68 68 69 70 71 73 73 74 74 75 75 75 75 76 77 76 75 74 73 74 75 75 76 75 74 72 72 72 72 72 72 73 68 69 68
50 51 54 56 57 56 56 56 55 51 49 54 58 50 48 55 54 56 59 59 59 59 59 60 59 54 52 51 51 51 55 58 58 59 60 60 61 61 62 63 63 64 65 66 67 68 69 70 70 71 71 72 73 73 73 72 71 70 70 69 68 68 68 68 69 71 72 73 74 73 73 75 75 75 75 75 76 77 75 74 74 75 75 75 78 74 73 73 71 73 76 73 73 74 69 67 69
49 50 57 57 57 56 56 55 54 53 56 57 57 56 49 49 54 56 58 58 58 58 58 58 60 59 53 51 51 51 55 57 58 59 60 60 61 61 62 63 63 64 65 66 67 68 69 70 70 70 71 73 73 73 72 71 70 70 69 69 70 69 68 68 69 70 72 74 73 73 73 74 75 75 75 75 76 76 76 75 75 75 75 75 77 76 73 73 74 73 77 75 76 73 70 69 68
48 57 57 57 57 57 56 55 53 55 52 49 54 57 50 49 54 57 58 56 57 57 56 57 58 60 58 51 51 51 54 57 58 59 59 60 61 61 62 62 63 65 65 66 67 68 69 70 71 71 71 73 72 73 72 71 71 70 69 69 70 70 69 69 72 73 73 74 73 73 73 73 74 75 75 75 75 76 77 75 75 74 74 73 77 76 74 74 73 72 73 73 72 73 74 72 70
56 56 55 55 55 55 56 55 54 53 50 47 51 55 48 48 54 54 57 56 55 57 57 57 57 60 61 56 51 52 53 57 58 59 59 60 61 61 62 62 64 65 65 67 67 68 69 70 71 71 72 72 72 72 72 71 71 71 70 70 70 70 72 72 73 72 72 73 72 72 72 72 73 74 74 75 75 76 77 76 75 75 74 75 77 75 74 73 73 73 73 73 74 73 73 73 73
56 53 52 52 52 52 53 54 53 51 46 49 50 54 53 44 51 54 53 54 56 57 57 57 58 59 61 61 53 53 53 57 58 59 60 60 61 62 62 62 63 65 65 66 67 68 69 70 70 71 72 72 72 72 72 72 72 70 70 70 70 70 72 72 72 71 71 72 72 72 72 72 73 74 74 75 75 75 76 76 76 75 75 77 77 75 73 73 72 72 74 75 74 73 74 74 73
54 52 49 47 47 52 49 48 50 45 44 50 52 52 53 44 49 55 58 58 56 56 56 56 56 58 60 61 61 54 52 55 58 59 59 60 61 62 62 62 63 64 65 66 67 68 69 69 70 71 72 72 72 72 72 72 73 71 70 71 70 71 72 72 71 71 71 72 71 72 72 73 73 74 74 75 75 75 75 75 76 75 76 75 74 74 74 74 73 74 74 74 73 73 73 74 72
51 50 46 43 40 42 40 43 41 42 43 51 54 54 51 48 51 59 59 56 57 57 56 56 56 58 60 60 61 58 53 53 57 59 59 60 60 61 61 62 63 64 65 66 67 68 68 69 70 70 72 73 72 73 72 73 73 72 71 71 71 72 72 72 71 71 71 71 72 72 72 73 72 73 73 74 74 74 75 74 74 73 74 76 75 75 75 75 74 74 74 74 73 72 72 74 72
48 45 43 41 37 35 35 39 42 41 49 54 53 56 49 54 56 55 58 59 58 59 57 57 56 57 59 60 61 61 54 52 55 58 59 60 60 61 62 62 63 64 64 65 67 68 68 69 70 70 71 73 73 73 73 73 73 72 72 72 72 73 72 72 71 71 72 71 72 72 73 73 73 73 73 74 74 74 75 75 75 74 74 75 75 75 75 74 75 74 74 73 73 73 73 74 73
46 46 41 41 41 38 34 39 38 40 44 50 55 50 47 48 52 62 58 58 58 59 59 58 57 57 59 60 61 61 57 52 54 57 59 60 61 61 62 62 63 63 64 65 67 68 68 69 70 70 71 72 73 73 73 73 73 73 73 72 73 73 72 73 72 73 72 72 73 72 73 73 73 73 73 73 75 74 74 74 75 75 74 75 76 76 77 76 76 76 76 75 75 75 74 74 73
44 44 42 40 39 43 38 42 43 45 46 47 49 49 52 52 60 63 63 58 58 60 60 59 57 58 59 60 60 61 60 54 54 56 58 60 61 61 62 62 63 63 64 65 66 68 68 69 70 70 70 72 73 73 73 73 73 73 73 72 73 74 74 73 73 75 74 73 73 73 73 73 73 73 73 73 74 75 74 74 75 75 75 76 75 75 74 75 75 74 73 75 73 77 74 73 73
41 41 39 39 43 46 45 47 47 47 44 44 50 51 53 59 61 60 60 58 57 58 59 59 58 58 58 59 60 60 61 58 55 55 57 59 61 62 62 62 63 63 64 65 66 67 68 69 70 70 70 72 72 73 73 73 73 73 73 72 73 74 74 73 73 74 74 74 74 74 73 74 73 72 72 74 73 75 74 74 75 75 75 75 75 75 75 74 74 74 73 73 73 74 74 73 74
37 40 41 39 41 44 43 40 41 41 37 42 49 49 50 48 47 60 58 55 56 57 57 58 58 58 58 59 60 60 60 61 57 55 56 57 60 62 62 63 63 63 64 65 66 67 68 69 70 70 70 71 72 72 73 73 73 73 73 73 73 74 73 73 73 74 74 74 73 74 74 74 74 73 73 73 73 73 74 77 74 75 75 75 75 75 74 74 74 73 74 73 74 73 73 73 74
42 44 35 38 38 37 40 41 38 37 37 39 46 49 50 50 50 56 57 54 53 55 57 57 57 57 58 59 60 60 60 61 60 57 56 56 58 61 62 63 63 63 64 65 67 68 68 69 69 70 70 71 71 72 72 73 73 73 74 73 73 74 73 73 73 74 74 74 73 73 74 74 74 74 74 74 74 73 74 74 75 74 74 75 75 75 75 74 74 73 74 74 74 74 73 73 73
20 27 31 40 38 38 37 37 40 38 39 37 39 45 43 50 49 56 57 55 53 54 56 57 58 57 58 59 60 60 60 60 61 59 57 56 56 59 61 62 63 63 64 66 67 68 68 69 69 70 70 71 71 72 72 73 73 73 73 73 73 74 74 73 73 73 73 73 73 73 73 73 73 74 74 73 74 73 73 73 74 75 75 75 75 75 75 74 74 74 74 74 74 74 73 73 73
19 23 24 29 35 39 39 44 37 36 39 37 39 38 43 46 53 56 57 56 54 54 56 57 57 57 58 60 60 61 60 61 62 61 59 57 56 58 60 61 62 63 65 67 68 68 68 69 69 70 70 70 71 71 72 72 73 73 73 73 73 73 73 73 73 73 73 73 73 74 73 73 73 72 73 73 73 73 73 73 73 74 74 74 75 75 75 74 73 74 74 73 73 73 73 73 73
21 18 25 25 36 34 32 33 37 42 38 36 36 37 44 48 58 55 58 58 56 56 57 57 58 61 62 63 63 62 62 63 63 63 60 59 57 57 59 61 62 62 65 67 68 68 68 69 69 70 70 71 70 71 71 72 73 73 73 73 73 73 73 73 73 72 72 72 72 72 72 73 72 72 72 72 72 72 73 73 73 73 74 74 74 74 74 74 74 74 74 74 74 73 72 73 72